Location: Ffald-y-Brenin
(52.0833°N, 4.0000°W)
Time: 17:30:10
(UTC+00:00)

SMAP - Pass Details

Date: 18 February 2020
Orbit: 681 x 683 km, 98.1° (Epoch: 06 April)

Event Time Altitude Azimuth Distance (km) Brightness Sun altitude
Rises 06:29:45 0° 17° (NNE) 3,061 6.5 -9.3°
Reaches altitude 10° 06:32:02 10° 21° (NNE) 2,141 5.8 -9.0°
Maximum altitude 06:36:40 60° 102° (ESE) 784 3.8 -8.3°
Drops below altitude 10° 06:41:16 10° 182° (S) 2,123 5.7 -7.6°
Sets 06:43:31 0° 186° (S) 3,034 6.5 -7.2°
